FW5335 Weather Reports


time (UTC)temp
C
wind
direction
speed
KPH
gust
KPH
rain 1hr
cm
rain 24hr
cm
rain mn
cm
humidity
%
barometer
mb
20260904025523 20 225 16.1 27.4 0.00 0.00 0.00 85 1013.3
20260904024523 20 225 16.1 27.4 0.00 0.00 0.00 85 1013.6
20260904023519 20 225 14.5 24.1 0.00 0.00 0.00 86 1013.8
20260904022541 20 225 12.9 25.7 0.00 0.00 0.00 86 1013.9
20260904021520 20 225 12.9 24.1 0.00 0.00 0.00 85 1014.0
20260904020522 20 225 16.1 30.6 0.00 0.00 0.00 85 1014.0
20260904015542 20 225 19.3 35.4 0.00 0.00 0.00 84 1013.9
20260904014521 20 225 17.7 32.2 0.00 0.00 0.00 83 1014.1
20260904013520 20 225 16.1 33.8 0.00 0.00 0.00 83 1013.9
20260904012520 20 225 16.1 33.8 0.00 0.00 0.00 83 1013.9
20260904011522 20 225 16.1 35.4 0.00 0.00 0.00 84 1014.0
20260904010518 20 225 16.1 32.2 0.00 0.00 0.00 84 1014.1
20260904005540 20 225 16.1 27.4 0.00 0.00 0.00 84 1014.4
20260904004541 20 225 14.5 27.4 0.00 0.00 0.00 84 1014.5
20260904003523 20 225 16.1 29.0 0.00 0.00 0.00 83 1014.6
20260904002520 20 225 16.1 27.4 0.00 0.00 0.00 82 1014.5
20260904001521 20 225 17.7 35.4 0.00 0.00 0.00 82 1014.6
20260904000520 20 225 12.9 33.8 0.00 0.00 0.00 82 1014.8
20260903235520 20 225 12.9 24.1 0.00 0.00 0.00 81 1014.9
20260903234542 20 203 12.9 32.2 0.00 0.00 0.00 81 1015.0
20260903233521 20 225 14.5 29.0 0.00 0.00 0.00 80 1015.2
20260903232518 20 225 14.5 25.7 0.00 0.00 0.00 80 1015.3
20260903231518 20 225 12.9 24.1 0.00 0.00 0.00 79 1015.3
20260903230540 20 225 19.3 37.0 0.00 0.00 0.00 79 1015.5
20260903225537 20 225 14.5 25.7 0.00 0.00 0.00 79 1015.5
20260903224542 20 225 14.5 25.7 0.00 0.00 0.00 80 1015.5
20260903223521 20 225 12.9 25.7 0.00 0.00 0.00 80 1015.6
20260903222518 20 225 9.7 20.9 0.00 0.00 0.00 80 1015.7
20260903221521 20 225 9.7 20.9 0.00 0.00 0.00 79 1015.9
20260903220522 20 225 11.3 20.9 0.00 0.00 0.00 79 1016.2
20260903215521 20 225 9.7 22.5 0.00 0.00 0.00 79 1016.2
20260903214523 20 225 11.3 22.5 0.00 0.00 0.00 79 1016.3
20260903213526 20 225 11.3 22.5 0.00 0.00 0.00 79 1016.5
20260903212518 20 225 12.9 22.5 0.00 0.00 0.00 79 1016.8
20260903211518 20 225 9.7 19.3 0.00 0.00 0.00 79 1017.0
20260903210537 20 225 8.0 20.9 0.00 0.00 0.00 79 1017.0
20260903205517 20 225 8.0 17.7 0.00 0.00 0.00 79 1017.1
20260903204523 20 225 6.4 14.5 0.00 0.00 0.00 79 1017.2
20260903203519 20 225 8.0 14.5 0.00 0.00 0.00 79 1017.4
20260903202517 20 225 6.4 14.5 0.00 0.00 0.00 78 1017.6
20260903201521 20 248 6.4 12.9 0.00 0.00 0.00 78 1017.8
20260903200518 20 225 9.7 19.3 0.00 0.00 0.00 77 1017.7
20260903195517 20 225 9.7 16.1 0.00 0.00 0.00 77 1017.6
20260903194519 20 225 11.3 19.3 0.00 0.00 0.00 77 1017.9
20260903193518 20 248 8.0 22.5 0.00 0.00 0.00 77 1017.9
20260903192541 20 248 12.9 24.1 0.00 0.00 0.00 77 1018.0
20260903191537 20 248 11.3 22.5 0.00 0.00 0.00 77 1017.9
20260903190538 20 225 11.3 19.3 0.00 0.00 0.00 77 1017.7
20260903185518 20 225 9.7 17.7 0.00 0.00 0.00 76 1017.9
20260903184517 21 248 12.9 25.7 0.00 0.00 0.00 75 1018.1
20260903183523 21 248 12.9 20.9 0.00 0.00 0.00 75 1018.4
20260903182539 22 248 11.3 22.5 0.00 0.00 0.00 74 1018.6
20260903181518 22 248 16.1 35.4 0.00 0.00 0.00 72 1018.4
20260903180559 23 248 12.9 22.5 0.00 0.00 0.00 74 1018.2
20260903175518 23 225 12.9 24.1 0.00 0.00 0.00 72 1017.9
20260903174518 23 225 11.3 24.1 0.00 0.00 0.00 71 1017.9
20260903173518 23 225 14.5 27.4 0.00 0.00 0.00 70 1017.8
20260903172518 23 225 11.3 20.9 0.00 0.00 0.00 70 1017.7
20260903171518 24 225 14.5 25.7 0.00 0.00 0.00 70 1017.8
20260903170518 24 248 11.3 22.5 0.00 0.00 0.00 69 1017.9
20260903165517 24 248 16.1 27.4 0.00 0.00 0.00 68 1017.8
20260903164517 24 248 16.1 30.6 0.00 0.00 0.00 67 1017.9
20260903163517 25 248 12.9 30.6 0.00 0.00 0.00 66 1017.9
20260903162517 25 248 11.3 27.4 0.00 0.00 0.00 65 1018.2
20260903161520 25 248 12.9 25.7 0.00 0.00 0.00 65 1018.0
20260903160520 25 248 16.1 29.0 0.00 0.00 0.00 63 1018.2
20260903155518 26 270 19.3 41.8 0.00 0.00 0.00 63 1018.5
20260903154541 25 248 16.1 37.0 0.00 0.00 0.00 65 1018.6
20260903153520 25 248 12.9 24.1 0.00 0.00 0.00 65 1018.7
20260903152519 25 248 12.9 27.4 0.00 0.00 0.00 65 1018.9
20260903151517 25 248 17.7 37.0 0.00 0.00 0.00 65 1018.9
20260903150525 25 225 12.9 29.0 0.00 0.00 0.00 66 1019.2
20260903145520 25 248 14.5 29.0 0.00 0.00 0.00 67 1019.2
20260903144540 24 225 14.5 24.1 0.00 0.00 0.00 67 1019.3
20260903143518 25 248 16.1 29.0 0.00 0.00 0.00 66 1019.4
20260903142520 24 225 11.3 22.5 0.00 0.00 0.00 67 1019.4
20260903141517 24 248 19.3 35.4 0.00 0.00 0.00 66 1019.4
20260903140522 24 270 12.9 29.0 0.00 0.00 0.00 66 1019.4
20260903135518 24 248 12.9 25.7 0.00 0.00 0.00 66 1019.5
20260903134520 24 225 12.9 24.1 0.00 0.00 0.00 65 1019.5
20260903133520 25 248 19.3 35.4 0.00 0.00 0.00 64 1019.5
20260903132539 24 225 11.3 22.5 0.00 0.00 0.00 66 1019.7
20260903131519 24 248 16.1 30.6 0.00 0.00 0.00 66 1019.8
20260903130520 25 248 16.1 27.4 0.00 0.00 0.00 64 1019.6
20260903125518 25 225 17.7 32.2 0.00 0.00 0.00 62 1019.4
20260903124518 25 248 19.3 32.2 0.00 0.00 0.00 62 1019.3
20260903123518 25 248 16.1 29.0 0.00 0.00 0.00 67 1019.5
20260903122519 25 248 16.1 30.6 0.00 0.00 0.00 68 1019.4
20260903121519 25 248 12.9 27.4 0.00 0.00 0.00 68 1019.4
20260903120538 25 225 22.5 38.6 0.00 0.00 0.00 68 1019.6
20260903115519 25 248 17.7 33.8 0.00 0.00 0.00 69 1019.5
20260903114522 25 225 14.5 30.6 0.00 0.00 0.00 70 1019.4
20260903113519 24 248 14.5 24.1 0.00 0.00 0.00 71 1019.4
20260903112521 23 225 11.3 22.5 0.00 0.00 0.00 72 1019.6
20260903111520 23 225 16.1 27.4 0.00 0.00 0.00 73 1019.5
20260903110542 23 248 16.1 27.4 0.00 0.00 0.00 72 1019.4
20260903105523 24 248 12.9 20.9 0.00 0.00 0.00 72 1019.4
20260903104520 24 248 14.5 27.4 0.00 0.00 0.00 70 1019.4
20260903103518 24 225 12.9 20.9 0.00 0.00 0.00 72 1019.5
20260903102542 23 248 9.7 17.7 0.00 0.00 0.00 77 1019.3
20260903101520 22 225 11.3 20.9 0.00 0.00 0.00 79 1019.3
20260903100522 22 225 8.0 19.3 0.00 0.00 0.00 81 1019.3
20260903095520 21 225 9.7 17.7 0.00 0.00 0.00 82 1019.4
20260903094542 21 225 8.0 16.1 0.00 0.00 0.00 84 1019.6
20260903093519 21 225 9.7 19.3 0.00 0.00 0.00 85 1019.6
20260903092518 20 225 3.2 6.4 0.00 0.00 0.00 88 1019.3
20260903091521 20 225 6.4 12.9 0.00 0.00 0.00 87 1019.4
20260903090519 20 248 6.4 14.5 0.00 0.00 0.00 87 1019.7
20260903085539 20 248 8.0 14.5 0.00 0.00 0.00 86 1019.4
20260903084518 20 248 4.8 11.3 0.00 0.00 0.00 85 1019.5
20260903083522 20 248 6.4 12.9 0.00 0.00 0.00 83 1019.5
20260903082520 20 225 8.0 16.1 0.00 0.00 0.00 82 1019.5
20260903081518 20 248 9.7 19.3 0.00 0.00 0.00 81 1019.3
20260903080518 20 225 11.3 20.9 0.00 0.00 0.00 81 1019.3
20260903075519 20 225 9.7 20.9 0.00 0.03 0.00 81 1019.2
20260903074521 20 248 9.7 19.3 0.00 0.03 0.00 81 1019.2
20260903073518 20 225 9.7 19.3 0.00 0.03 0.00 81 1019.0
20260903072519 20 225 9.7 20.9 0.00 0.03 0.00 83 1018.9
20260903071519 20 225 11.3 20.9 0.00 0.03 0.00 84 1018.5
20260903070519 19 225 12.9 24.1 0.00 0.03 0.00 85 1018.9
20260903065519 19 225 12.9 22.5 0.00 0.03 0.00 86 1018.8
20260903064539 18 225 9.7 22.5 0.00 0.03 0.00 86 1018.6
20260903063519 18 225 6.4 16.1 0.00 0.03 0.00 87 1018.5
20260903062619 18 225 12.9 22.5 0.00 0.03 0.00 87 1018.8
20260903061538 18 225 11.3 19.3 0.00 0.03 0.00 88 1018.7
20260903060518 18 225 6.4 14.5 0.00 0.03 0.00 88 1018.7
20260903055517 18 225 4.8 11.3 0.00 0.03 0.00 88 1018.6
20260903054518 18 225 8.0 19.3 0.00 0.03 0.00 87 1018.7
20260903053519 18 225 9.7 17.7 0.00 0.03 0.00 87 1018.6
20260903052517 18 225 9.7 17.7 0.00 0.03 0.00 87 1018.7
20260903051523 18 248 8.0 17.7 0.00 0.03 0.00 86 1018.7
20260903050518 18 225 8.0 16.1 0.00 0.03 0.00 86 1018.4
20260903045534 18 225 9.7 19.3 0.00 0.03 0.00 86 1018.5
20260903044543 18 248 9.7 17.7 0.00 0.03 0.00 86 1018.4
20260903043522 18 225 11.3 24.1 0.00 0.03 0.00 86 1018.2
20260903042520 18 225 11.3 22.5 0.00 0.03 0.00 87 1018.2
20260903041519 18 225 12.9 22.5 0.00 0.03 0.00 87 1018.0
20260903040518 18 248 12.9 24.1 0.00 0.03 0.00 86 1018.0
20260903035521 18 225 11.3 20.9 0.00 0.03 0.00 86 1017.8
20260903034521 18 248 14.5 25.7 0.00 0.03 0.00 86 1018.0
20260903033540 18 248 11.3 19.3 0.00 0.03 0.00 87 1018.2
20260903032517 18 248 9.7 19.3 0.00 0.03 0.00 87 1018.1
20260903031538 18 248 9.7 20.9 0.00 0.03 0.00 87 1018.0
20260903030519 18 225 11.3 20.9 0.00 0.03 0.00 86 1017.9